User: anonymous   Login
Location: Homewood
(41.1836°S, 175.9581°E)
Time: 13:02:36
(UTC+00:00)
Language:

NOSS 3-3 (A) - Orbit

View from above orbital plane
View from above orbital plane
View from above satellite
View from above satellite

Ground track
Ground track

The orbit data is extracted from the following two-line orbital elements,

1 28537U 05004A   25197.96598627 0.00000000  00000-0  00000-0 0    03
2 28537  63.3900 205.7354 0517981   3.6842 356.3158 13.41167113    07
Epoch (UTC): 16 July 2025 23:11:01
Eccentricity: 0.0517981
inclination: 63.3900°
perigee height: 717 km
apogee height: 1492 km
right ascension of ascending node: 205.7354°
argument of perigee: 3.6842°
revolutions per day: 13.41167113
mean anomaly at epoch: 356.3158°
orbit number at epoch: 0

The dashed part of the orbit path shows where the satellite is in the earth's shadow,  

DLR